Homer, AK

6:43 AM AKST on January 17, 2017 (GMT -0900)
Homer

Weather History for PAHO - February, 2015

Change the Weather History Date:

Saturday, February 21, 2015

  Actual Average Record
Temperature  
Mean Temperature 48 °F -  
Max Temperature 52 °F 31 °F 52 °F (2015)
Min Temperature 43 °F 18 °F -3 °F (1956)
Degree Days  
Heating Degree Days 18    
Moisture  
Dew Point 37 °F    
Average Humidity 65    
Maximum Humidity 86    
Minimum Humidity 54    
Precipitation  
Precipitation 0.02 in - - ()
Sea Level Pressure  
Sea Level Pressure 29.82 in    
Wind  
Wind Speed 12 mph (East)    
Max Wind Speed 25 mph    
Max Gust Speed 36 mph    
Visibility 10 miles    
Events Rain    
Averages and records for this station are not official NWS values.
T = Trace of Precipitation, MM = Missing Value Source: NWS Daily Summary

Daily Weather History Graph

Daily Weather History Graph

Search for Another Location

Airport or City:

Trip Planner

Search our weather history database for the weather conditions in past years. The results will help you decide how hot, cold, wet, or windy it might be!

Date:

Astronomy

Feb. 21, 2015 Rise Set
Actual Time 8:26 AM AKST 6:13 PM AKST
Civil Twilight 7:43 AM AKST 6:56 PM AKST
Nautical Twilight 6:56 AM AKST 7:44 PM AKST
Astronomical Twilight 6:08 AM AKST 8:31 PM AKST
Moon 9:13 AM AKST (2/21) 11:01 PM AKST (2/21)
Length of Visible Light 11h 12m
Length of Day
9h 47m
Waxing Crescent, 12% of the Moon is Illuminated
Feb 21
Waxing Crescent
Feb 25
First Quarter
Mar 5
Full
Mar 13
Last Quarter
Mar 20
New

Hourly Weather History & Observations

Time (AKST) Temp. Windchill Dew Point Humidity Pressure Visibility Wind Dir Wind Speed Gust Speed Precip Events Conditions
12:53 AM 46.9 °F - 34.0 °F 61% 29.83 in 10.0 mi East 24.2 mph 35.7 mph 0.00 in Rain Light Rain
1:53 AM 46.9 °F - 34.0 °F 61% 29.84 in 10.0 mi East 23.0 mph 32.2 mph 0.00 in   Overcast
2:53 AM 48.0 °F - 34.0 °F 58% 29.81 in 10.0 mi East 25.3 mph 34.5 mph 0.01 in   Overcast
3:53 AM 48.0 °F - 35.1 °F 61% 29.81 in 10.0 mi East 15.0 mph 29.9 mph 0.00 in Rain Light Rain
4:53 AM 48.0 °F - 34.0 °F 58% 29.80 in 10.0 mi ESE 8.1 mph - 0.00 in   Overcast
5:53 AM 48.9 °F - 34.0 °F 56% 29.80 in 10.0 mi SSE 5.8 mph - N/A   Overcast
6:53 AM 48.0 °F - 35.1 °F 61% 29.80 in 10.0 mi Calm Calm - 0.00 in   Overcast
7:53 AM 48.0 °F - 35.1 °F 61% 29.80 in 10.0 mi SSE 3.5 mph - N/A   Overcast
8:53 AM 48.0 °F - 35.1 °F 61% 29.81 in 10.0 mi NNE 4.6 mph - N/A   Overcast
9:53 AM 51.1 °F - 35.1 °F 54% 29.81 in 10.0 mi ESE 15.0 mph 26.5 mph N/A   Mostly Cloudy
10:53 AM 50.0 °F - 36.0 °F 59% 29.81 in 10.0 mi East 8.1 mph - 0.00 in Rain Light Rain
11:53 AM 51.1 °F - 37.0 °F 59% 29.81 in 10.0 mi ESE 4.6 mph - 0.00 in   Mostly Cloudy
12:53 PM 52.0 °F - 37.9 °F 59% 29.80 in 10.0 mi Variable 3.5 mph - 0.00 in   Overcast
1:53 PM 52.0 °F - 37.0 °F 57% 29.79 in 10.0 mi Calm Calm - N/A   Overcast
2:53 PM 48.9 °F - 39.0 °F 69% 29.80 in 9.0 mi WSW 3.5 mph - 0.01 in Rain Light Rain
3:53 PM 48.9 °F - 39.9 °F 71% 29.80 in 10.0 mi Calm Calm - 0.00 in   Overcast
4:53 PM 50.0 °F - 39.9 °F 68% 29.81 in 10.0 mi WSW 3.5 mph - N/A   Overcast
5:53 PM 48.0 °F - 39.0 °F 71% 29.82 in 10.0 mi Calm Calm - N/A   Overcast
6:53 PM 46.0 °F - 37.9 °F 73% 29.84 in 10.0 mi Calm Calm - N/A   Overcast
7:53 PM 44.1 °F 41.5 °F 37.0 °F 76% 29.86 in 10.0 mi NNE 4.6 mph - N/A   Mostly Cloudy
8:53 PM 43.0 °F 40.3 °F 37.9 °F 82% 29.86 in 10.0 mi NNE 4.6 mph - N/A   Overcast
9:53 PM 43.0 °F 41.3 °F 39.0 °F 86% 29.88 in 10.0 mi ENE 3.5 mph - 0.00 in   Overcast
10:53 PM 48.9 °F - 37.9 °F 66% 29.89 in 10.0 mi ESE 8.1 mph - 0.00 in   Overcast
11:53 PM 44.1 °F - 37.0 °F 76% 29.91 in 10.0 mi Calm Calm - N/A   Mostly Cloudy